| time (UTC) | temp F | wind direction | speed MPH | gust MPH | rain 1hr in | rain 24hr in | rain mn in | humidity % | barometer mb |
| 20260904010012 | 96 | 146 | 5.0 | 14.0 | 0.00 | 0.00 | 0.00 | 35 | 1010.4 |
| 20260904004508 | 98 | 116 | 2.0 | 13.0 | 0.00 | 0.00 | 0.00 | 31 | 1010.3 |
| 20260904003007 | 98 | 86 | 2.0 | 7.0 | 0.00 | 0.00 | 0.00 | 30 | 1010.2 |
| 20260904001512 | 99 | 76 | 2.0 | 5.0 | 0.00 | 0.00 | 0.00 | 30 | 1010.0 |
| 20260904000012 | 100 | 57 | 3.0 | 10.0 | 0.00 | 0.00 | 0.00 | 29 | 1009.9 |
| 20260903234511 | 100 | 89 | 5.0 | 9.0 | 0.00 | 0.00 | 0.00 | 29 | 1009.9 |
| 20260903233027 | 0 | 89 | 1.0 | 0.0 | 0.00 | 0.00 | 0.00 | 1009.7 | |
| 20260903231517 | 101 | 131 | 3.0 | 11.0 | 0.00 | 0.00 | 0.00 | 28 | 1009.7 |
| 20260903230014 | 102 | 125 | 2.0 | 7.0 | 0.00 | 0.00 | 0.00 | 27 | 1009.7 |
| 20260903224514 | 102 | 125 | 3.0 | 10.0 | 0.00 | 0.00 | 0.00 | 26 | 1009.7 |
| 20260903223014 | 102 | 79 | 2.0 | 11.0 | 0.00 | 0.00 | 0.00 | 27 | 1009.7 |
| 20260903221515 | 103 | 87 | 4.0 | 11.0 | 0.00 | 0.00 | 0.00 | 27 | 1009.7 |
| 20260903220010 | 104 | 99 | 6.0 | 10.0 | 0.00 | 0.00 | 0.00 | 26 | 1009.7 |
| 20260903214512 | 106 | 96 | 2.0 | 5.0 | 0.00 | 0.00 | 0.00 | 23 | 1009.7 |
| 20260903213017 | 108 | 146 | 1.0 | 2.0 | 0.00 | 0.00 | 0.00 | 22 | 1009.9 |
| 20260903211520 | 106 | 119 | 1.0 | 4.0 | 0.00 | 0.00 | 0.00 | 23 | 1010.2 |
| 20260903210018 | 107 | 121 | 1.0 | 5.0 | 0.00 | 0.00 | 0.00 | 22 | 1010.4 |
| 20260903204516 | 106 | 207 | 2.0 | 4.0 | 0.00 | 0.00 | 0.00 | 22 | 1010.6 |
| 20260903203017 | 105 | 140 | 2.0 | 6.0 | 0.00 | 0.00 | 0.00 | 23 | 1010.8 |
| 20260903201520 | 105 | 97 | 1.0 | 6.0 | 0.00 | 0.00 | 0.00 | 24 | 1011.1 |
| 20260903200021 | 106 | 322 | 2.0 | 8.0 | 0.00 | 0.00 | 0.00 | 22 | 1011.2 |
| 20260903194520 | 105 | 46 | 2.0 | 10.0 | 0.00 | 0.00 | 0.00 | 24 | 1011.5 |
| 20260903193003 | 105 | 101 | 2.0 | 4.0 | 0.00 | 0.00 | 0.00 | 24 | 1011.7 |
| 20260903191503 | 105 | 105 | 3.0 | 7.0 | 0.00 | 0.00 | 0.00 | 24 | 1011.9 |
| 20260903190001 | 106 | 304 | 1.0 | 4.0 | 0.00 | 0.00 | 0.00 | 24 | 1012.1 |
| 20260903184501 | 105 | 195 | 1.0 | 4.0 | 0.00 | 0.00 | 0.00 | 25 | 1012.3 |
| 20260903183006 | 104 | 79 | 3.0 | 0.0 | 0.00 | 0.00 | 0.00 | 25 | 1012.5 |
| 20260903181511 | 104 | 39 | 0.0 | 4.0 | 0.00 | 0.00 | 0.00 | 26 | 1012.8 |
| 20260903180024 | 105 | 81 | 0.0 | 2.0 | 0.00 | 0.00 | 0.00 | 28 | 1013.0 |
| 20260903174509 | 103 | 237 | 1.0 | 4.0 | 0.00 | 0.00 | 0.00 | 27 | 1013.2 |
| 20260903173027 | 103 | 291 | 2.0 | 4.0 | 0.00 | 0.00 | 0.00 | 29 | 1013.5 |
| 20260903171508 | 103 | 294 | 2.0 | 4.0 | 0.00 | 0.00 | 0.00 | 30 | 1013.6 |
| 20260903170037 | 101 | 158 | 0.0 | 5.0 | 0.00 | 0.00 | 0.00 | 32 | 1013.7 |
| 20260903164528 | 101 | 250 | 2.0 | 5.0 | 0.00 | 0.00 | 0.00 | 31 | 1013.7 |
| 20260903163035 | 100 | 127 | 1.0 | 3.0 | 0.00 | 0.00 | 0.00 | 34 | 1013.7 |
| 20260903161530 | 98 | 142 | 1.0 | 4.0 | 0.00 | 0.00 | 0.00 | 38 | 1013.7 |
| 20260903160008 | 97 | 229 | 2.0 | 4.0 | 0.00 | 0.00 | 0.00 | 38 | 1013.7 |
| 20260903154530 | 96 | 211 | 1.0 | 5.0 | 0.00 | 0.00 | 0.00 | 38 | 1013.7 |
| 20260903153027 | 95 | 212 | 2.0 | 4.0 | 0.00 | 0.00 | 0.00 | 39 | 1013.5 |
| 20260903151525 | 93 | 179 | 3.0 | 6.0 | 0.00 | 0.00 | 0.00 | 43 | 1013.6 |
| 20260903150042 | 92 | 226 | 0.0 | 4.0 | 0.00 | 0.00 | 0.00 | 46 | 1013.7 |
| 20260903144529 | 90 | 286 | 1.0 | 5.0 | 0.00 | 0.00 | 0.00 | 46 | 1013.6 |
| 20260903143036 | 89 | 227 | 0.0 | 2.0 | 0.00 | 0.00 | 0.00 | 49 | 1013.7 |
| 20260903141530 | 87 | 174 | 1.0 | 4.0 | 0.00 | 0.00 | 0.00 | 53 | 1013.8 |
| 20260903140031 | 85 | 146 | 0.0 | 1.0 | 0.00 | 0.00 | 0.00 | 56 | 1013.9 |
| 20260903134527 | 83 | 139 | 0.0 | 2.0 | 0.00 | 0.00 | 0.00 | 58 | 1014.0 |
| 20260903133031 | 81 | 142 | 0.0 | 1.0 | 0.00 | 0.00 | 0.00 | 62 | 1014.0 |
| 20260903131528 | 79 | 161 | 0.0 | 1.0 | 0.00 | 0.00 | 0.00 | 65 | 1014.1 |
| 20260903130023 | 77 | 152 | 0.0 | 0.0 | 0.00 | 0.00 | 0.00 | 67 | 1014.1 |
| 20260903124531 | 76 | 162 | 0.0 | 0.0 | 0.00 | 0.00 | 0.00 | 70 | 1013.9 |
| 20260903123030 | 75 | 132 | 0.0 | 0.0 | 0.00 | 0.00 | 0.00 | 72 | 1013.8 |
| 20260903121533 | 75 | 132 | 0.0 | 0.0 | 0.00 | 0.00 | 0.00 | 72 | 1013.8 |
| 20260903120034 | 75 | 132 | 0.0 | 0.0 | 0.00 | 0.00 | 0.00 | 71 | 1013.7 |
| 20260903114530 | 76 | 132 | 0.0 | 0.0 | 0.00 | 0.00 | 0.00 | 70 | 1013.7 |
| 20260903113027 | 77 | 155 | 0.0 | 0.0 | 0.00 | 0.00 | 0.00 | 69 | 1013.7 |
| 20260903111527 | 78 | 150 | 0.0 | 0.0 | 0.00 | 0.00 | 0.00 | 67 | 1013.5 |
| 20260903110034 | 78 | 160 | 0.0 | 0.0 | 0.00 | 0.00 | 0.00 | 66 | 1013.7 |
| 20260903104533 | 79 | 143 | 0.0 | 3.0 | 0.00 | 0.00 | 0.00 | 65 | 1013.6 |
| 20260903103030 | 79 | 150 | 0.0 | 3.0 | 0.00 | 0.00 | 0.00 | 64 | 1013.5 |
| 20260903101540 | 80 | 178 | 0.0 | 4.0 | 0.00 | 0.00 | 0.00 | 63 | 1013.5 |
| 20260903100035 | 80 | 167 | 1.0 | 3.0 | 0.00 | 0.00 | 0.00 | 63 | 1013.4 |
| 20260903094532 | 80 | 179 | 0.0 | 2.0 | 0.00 | 0.00 | 0.00 | 63 | 1013.5 |
| 20260903093042 | 80 | 152 | 0.0 | 1.0 | 0.00 | 0.00 | 0.00 | 63 | 1013.5 |
| 20260903091540 | 80 | 174 | 0.0 | 0.0 | 0.00 | 0.00 | 0.00 | 63 | 1013.6 |
| 20260903090032 | 81 | 122 | 0.0 | 2.0 | 0.00 | 0.00 | 0.00 | 62 | 1013.7 |
| 20260903084534 | 81 | 99 | 0.0 | 2.0 | 0.00 | 0.00 | 0.00 | 61 | 1013.7 |
| 20260903083040 | 81 | 168 | 1.0 | 4.0 | 0.00 | 0.00 | 0.00 | 60 | 1013.8 |
| 20260903081535 | 81 | 204 | 1.0 | 4.0 | 0.00 | 0.00 | 0.00 | 59 | 1013.9 |
| 20260903080045 | 81 | 131 | 1.0 | 6.0 | 0.00 | 0.00 | 0.00 | 58 | 1014.0 |
| 20260903074530 | 82 | 120 | 1.0 | 6.0 | 0.00 | 0.00 | 0.00 | 57 | 1014.0 |
| 20260903073033 | 82 | 115 | 2.0 | 9.0 | 0.00 | 0.00 | 0.00 | 56 | 1014.1 |
| 20260903071519 | 83 | 107 | 2.0 | 5.0 | 0.00 | 0.00 | 0.00 | 55 | 1014.3 |
| 20260903070035 | 84 | 184 | 1.0 | 5.0 | 0.00 | 0.00 | 0.00 | 54 | 1014.3 |
| 20260903064535 | 84 | 118 | 2.0 | 6.0 | 0.00 | 0.00 | 0.00 | 53 | 1014.4 |
| 20260903063029 | 84 | 188 | 1.0 | 4.0 | 0.00 | 0.00 | 0.00 | 53 | 1014.4 |
| 20260903061532 | 85 | 111 | 1.0 | 7.0 | 0.00 | 0.00 | 0.00 | 51 | 1014.4 |
| 20260903060023 | 85 | 241 | 3.0 | 7.0 | 0.00 | 0.00 | 0.00 | 51 | 1014.3 |
| 20260903054525 | 85 | 113 | 1.0 | 5.0 | 0.00 | 0.00 | 0.00 | 51 | 1014.3 |
| 20260903053028 | 85 | 77 | 0.0 | 5.0 | 0.00 | 0.00 | 0.00 | 50 | 1014.4 |
| 20260903051532 | 86 | 118 | 2.0 | 6.0 | 0.00 | 0.00 | 0.00 | 49 | 1014.2 |
| 20260903050040 | 86 | 94 | 0.0 | 6.0 | 0.00 | 0.00 | 0.00 | 48 | 1014.1 |
| 20260903044526 | 87 | 88 | 0.0 | 2.0 | 0.00 | 0.00 | 0.00 | 48 | 1014.1 |
| 20260903043030 | 88 | 102 | 1.0 | 3.0 | 0.00 | 0.00 | 0.00 | 46 | 1014.1 |
| 20260903041511 | 88 | 98 | 2.0 | 7.0 | 0.00 | 0.00 | 0.00 | 45 | 1014.1 |
| 20260903040010 | 89 | 99 | 1.0 | 6.0 | 0.00 | 0.00 | 0.00 | 43 | 1014.1 |
| 20260903034516 | 89 | 121 | 2.0 | 5.0 | 0.00 | 0.00 | 0.00 | 43 | 1014.0 |
| 20260903033001 | 89 | 100 | 1.0 | 3.0 | 0.00 | 0.00 | 0.00 | 42 | 1014.0 |
| 20260903031506 | 90 | 126 | 1.0 | 5.0 | 0.00 | 0.00 | 0.00 | 41 | 1013.9 |
| 20260903030010 | 90 | 108 | 1.0 | 5.0 | 0.00 | 0.00 | 0.00 | 41 | 1013.7 |
| 20260903024534 | 90 | 100 | 1.0 | 4.0 | 0.00 | 0.00 | 0.00 | 40 | 1013.6 |
| 20260903023025 | 91 | 139 | 1.0 | 6.0 | 0.00 | 0.00 | 0.00 | 39 | 1013.5 |
| 20260903021505 | 92 | 111 | 1.0 | 5.0 | 0.00 | 0.00 | 0.00 | 37 | 1013.3 |
| 20260903020035 | 92 | 83 | 1.0 | 4.0 | 0.00 | 0.00 | 0.00 | 36 | 1013.1 |
| 20260903014535 | 93 | 117 | 1.0 | 5.0 | 0.00 | 0.00 | 0.00 | 35 | 1013.0 |
| 20260903013034 | 94 | 105 | 0.0 | 3.0 | 0.00 | 0.00 | 0.00 | 34 | 1012.8 |
| 20260903011536 | 95 | 120 | 1.0 | 3.0 | 0.00 | 0.00 | 0.00 | 34 | 1012.6 |